DW7061 Weather Reports


Display with metric or nautical units.
time (UTC)temp
F
wind
direction
speed
MPH
gust
MPH
rain 1hr
in
rain 24hr
in
rain mn
in
humidity
%
barometer
mb
20260506203018 56 225 3.0 8.0 0.00 0.00 0.00 95 1004.8
20260506202017 56 248 1.0 5.0 0.00 0.00 0.00 95 1004.9
20260506201017 56 248 1.0 6.0 0.00 0.00 0.00 95 1005.0
20260506200017 56 248 1.0 5.0 0.00 0.00 0.00 95 1005.1
20260506195018 56 248 2.0 4.0 0.00 0.00 0.00 95 1005.3
20260506194017 57 248 1.0 4.0 0.00 0.00 0.00 95 1005.3
20260506193017 57 225 2.0 9.0 0.00 0.00 0.00 95 1005.3
20260506192017 57 248 2.0 10.0 0.00 0.00 0.00 95 1005.5
20260506191037 57 248 2.0 6.0 0.00 0.00 0.00 94 1005.7
20260506190018 57 248 2.0 6.0 0.00 0.00 0.00 94 1005.6
20260506185017 57 135 1.0 8.0 0.00 0.00 0.00 94 1005.5
20260506184018 58 225 1.0 5.0 0.00 0.00 0.00 94 1005.6
20260506183039 58 225 2.0 8.0 0.00 0.00 0.00 93 1005.8
20260506182017 58 270 2.0 8.0 0.00 0.00 0.00 93 1005.9
20260506181017 58 248 1.0 4.0 0.00 0.00 0.00 93 1005.6
20260506180018 59 270 1.0 5.0 0.00 0.00 0.00 93 1005.7
20260506175037 59 180 1.0 4.0 0.00 0.00 0.00 92 1006.2
20260506174037 59 248 2.0 12.0 0.00 0.00 0.00 91 1006.4
20260506173017 60 248 1.0 2.0 0.00 0.00 0.00 91 1006.8
20260506172018 60 0.0 3.0 0.00 0.00 0.00 89 1006.9
20260506171017 61 0.0 3.0 0.00 0.00 0.00 87 1007.0
20260506170017 62 248 1.0 4.0 0.00 0.00 0.00 84 1007.0
20260506165017 62 248 1.0 4.0 0.00 0.00 0.00 82 1006.8
20260506164018 63 248 1.0 5.0 0.00 0.00 0.00 81 1007.0
20260506163017 63 225 1.0 2.0 0.00 0.00 0.00 81 1007.2
20260506162040 63 248 1.0 5.0 0.00 0.00 0.00 82 1007.1
20260506161017 62 248 1.0 4.0 0.00 0.00 0.00 83 1007.2
20260506160018 62 248 1.0 4.0 0.00 0.00 0.00 84 1007.5
20260506155017 61 248 1.0 7.0 0.00 0.00 0.00 84 1007.7
20260506154017 61 248 1.0 3.0 0.00 0.00 0.00 84 1007.7
20260506153017 61 248 1.0 5.0 0.00 0.00 0.00 84 1007.8
20260506152018 61 248 1.0 5.0 0.00 0.00 0.00 85 1008.0
20260506151017 60 225 2.0 11.0 0.00 0.00 0.00 86 1008.0
20260506150017 60 225 2.0 9.0 0.00 0.00 0.00 86 1008.1
20260506145018 60 248 2.0 8.0 0.00 0.00 0.00 85 1008.1
20260506144017 60 248 1.0 4.0 0.00 0.00 0.00 86 1008.1
20260506143017 60 248 2.0 5.0 0.00 0.00 0.00 86 1008.2
20260506142017 60 248 2.0 6.0 0.00 0.00 0.00 86 1008.0
20260506141017 60 225 2.0 6.0 0.00 0.00 0.00 86 1008.4
20260506140157 60 248 3.0 8.0 0.00 0.00 0.00 87 1008.1
20260506135017 60 248 1.0 5.0 0.00 0.00 0.00 87 1007.7
20260506134037 59 270 2.0 5.0 0.00 0.00 0.00 87 1007.9
20260506133018 59 248 2.0 6.0 0.00 0.00 0.00 88 1007.9
20260506132017 59 248 2.0 5.0 0.00 0.00 0.00 87 1008.0
20260506131017 59 248 2.0 6.0 0.00 0.00 0.00 88 1008.1
20260506130017 58 248 1.0 6.0 0.00 0.00 0.00 89 1008.2
20260506125018 58 248 1.0 3.0 0.00 0.00 0.00 89 1008.3
20260506124017 58 248 1.0 4.0 0.00 0.00 0.00 90 1008.4
20260506123037 58 248 1.0 4.0 0.00 0.00 0.00 90 1008.5
20260506122038 57 270 2.0 4.0 0.00 0.00 0.00 90 1008.5
20260506121017 57 248 2.0 4.0 0.00 0.00 0.00 90 1008.6
20260506120017 57 225 1.0 4.0 0.00 0.00 0.00 91 1008.4
20260506115018 57 225 1.0 9.0 0.00 0.00 0.00 91 1008.5
20260506114017 56 248 1.0 4.0 0.00 0.00 0.00 91 1008.6
20260506113017 56 225 2.0 8.0 0.00 0.00 0.00 91 1008.6
20260506112018 56 225 1.0 9.0 0.00 0.00 0.00 91 1008.4
20260506111017 56 225 1.0 8.0 0.00 0.00 0.00 92 1008.6
20260506110017 55 248 1.0 6.0 0.00 0.00 0.00 92 1008.8
20260506105058 56 225 2.0 7.0 0.00 0.00 0.00 92 1008.8
20260506104017 55 248 2.0 5.0 0.00 0.00 0.00 92 1008.9
20260506103037 55 225 1.0 8.0 0.00 0.00 0.00 92 1008.7
20260506102018 55 248 2.0 7.0 0.00 0.00 0.00 92 1008.5
20260506101017 55 248 1.0 5.0 0.00 0.00 0.00 92 1008.6
20260506100018 55 248 1.0 5.0 0.00 0.00 0.00 91 1008.7
20260506095017 55 248 1.0 4.0 0.00 0.00 0.00 91 1008.5
20260506094017 55 248 1.0 3.0 0.00 0.00 0.00 91 1008.6
20260506093037 55 270 1.0 4.0 0.00 0.00 0.00 90 1008.6
20260506092058 55 248 1.0 5.0 0.00 0.00 0.00 90 1008.5
20260506091017 55 113 1.0 10.0 0.00 0.00 0.00 90 1008.7
20260506090017 56 270 2.0 10.0 0.00 0.00 0.00 90 1008.7
20260506085038 56 225 2.0 5.0 0.00 0.00 0.00 89 1008.8
20260506084037 56 248 1.0 5.0 0.00 0.00 0.00 89 1008.9
20260506083017 56 225 2.0 7.0 0.00 0.00 0.00 89 1008.9
20260506082038 56 248 1.0 5.0 0.00 0.00 0.00 89 1008.8
20260506081037 56 248 1.0 5.0 0.00 0.00 0.00 88 1008.9
20260506073018 57 225 1.0 5.0 0.00 0.00 0.00 87 1009.0
20260506072017 57 248 1.0 4.0 0.00 0.00 0.00 86 1009.1
20260506071018 57 270 1.0 4.0 0.00 0.00 0.00 85 1009.1
20260506062018 58 248 1.0 4.0 0.00 0.00 0.00 82 1009.0
20260506061017 58 225 1.0 2.0 0.00 0.00 0.00 81 1009.1
20260506051017 59 248 1.0 3.0 0.00 0.00 0.00 78 1009.1
20260506045018 59 225 2.0 9.0 0.00 0.00 0.00 77 1009.3
20260506044017 59 248 2.0 5.0 0.00 0.00 0.00 77 1009.2
20260506043017 59 248 1.0 5.0 0.00 0.00 0.00 77 1009.4
20260506042017 59 248 2.0 9.0 0.00 0.00 0.00 76 1009.3
20260506041017 59 248 2.0 10.0 0.00 0.00 0.00 76 1009.2
20260506040020 60 248 2.0 10.0 0.00 0.00 0.00 76 1009.1
20260506035036 60 248 2.0 6.0 0.00 0.00 0.00 75 1009.2
20260506034020 60 248 2.0 6.0 0.00 0.00 0.00 75 1009.3
20260506033016 60 270 1.0 8.0 0.00 0.00 0.00 74 1009.3
20260506032015 60 248 1.0 6.0 0.00 0.00 0.00 74 1009.2
20260506031016 60 248 1.0 5.0 0.00 0.00 0.00 73 1009.2
20260506030016 60 248 1.0 4.0 0.00 0.00 0.00 73 1009.3
20260506025036 61 225 1.0 8.0 0.00 0.00 0.00 72 1009.2
20260506024016 61 248 1.0 8.0 0.00 0.00 0.00 71 1009.2
20260506023016 61 248 2.0 6.0 0.00 0.00 0.00 71 1009.1
20260506022016 61 248 2.0 8.0 0.00 0.00 0.00 71 1008.9
20260506021036 62 248 1.0 5.0 0.00 0.00 0.00 71 1008.9
20260506020018 62 0.0 2.0 0.00 0.00 0.00 71 1008.8
20260506015018 62 248 1.0 5.0 0.00 0.00 0.00 70 1008.9
20260506014016 63 0.0 3.0 0.00 0.00 0.00 70 1008.8
20260506013018 63 0.0 2.0 0.00 0.00 0.00 69 1008.6
20260506012016 63 270 1.0 4.0 0.00 0.00 0.00 68 1008.6
20260506011018 64 248 1.0 5.0 0.00 0.00 0.00 68 1008.6
20260506010016 64 248 1.0 3.0 0.00 0.00 0.00 67 1008.5
20260506005038 65 270 1.0 4.0 0.00 0.00 0.00 66 1008.5
20260506004017 65 0.0 3.0 0.00 0.00 0.00 65 1008.4
20260506003017 66 248 1.0 5.0 0.00 0.00 0.00 64 1008.3
20260506002018 66 248 3.0 7.0 0.00 0.00 0.00 63 1007.6
20260506001017 66 270 1.0 5.0 0.00 0.00 0.00 63 1007.5
20260506000017 67 248 2.0 7.0 0.00 0.00 0.00 62 1007.2
20260505235018 67 225 3.0 9.0 0.00 0.00 0.00 61 1006.9
20260505234058 68 248 2.0 7.0 0.00 0.00 0.00 60 1006.9
20260505233038 68 248 2.0 6.0 0.00 0.00 0.00 59 1006.6
20260505232018 69 225 1.0 4.0 0.00 0.00 0.00 58 1006.4
20260505231017 69 248 2.0 13.0 0.00 0.00 0.00 58 1006.3
20260505230018 70 225 2.0 11.0 0.00 0.00 0.00 57 1006.3
20260505225016 70 225 3.0 6.0 0.00 0.00 0.00 56 1006.2
20260505224018 71 225 3.0 8.0 0.00 0.00 0.00 54 1006.1
20260505223016 72 248 3.0 11.0 0.00 0.00 0.00 53 1006.0
20260505222018 72 248 4.0 23.0 0.00 0.00 0.00 52 1005.8
20260505221036 73 270 4.0 10.0 0.00 0.00 0.00 52 1006.0
20260505220017 73 225 3.0 9.0 0.00 0.00 0.00 51 1006.1
20260505215018 74 248 3.0 7.0 0.00 0.00 0.00 50 1005.8
20260505214017 74 225 4.0 11.0 0.00 0.00 0.00 50 1005.5
20260505213017 74 225 3.0 8.0 0.00 0.00 0.00 50 1005.4
20260505212018 74 248 4.0 12.0 0.00 0.00 0.00 50 1005.6
20260505211017 75 248 5.0 12.0 0.00 0.00 0.00 49 1005.7
20260505210016 76 248 4.0 10.0 0.00 0.00 0.00 48 1005.6
20260505205018 76 248 4.0 15.0 0.00 0.00 0.00 47 1005.4
20260505204017 76 225 2.0 9.0 0.00 0.00 0.00 47 1005.4